Wind_Speed
37 32 33 21 19 17 15 12 13 2 6 8 17 14 13 12 5 5 4 1 3 8 14 14 17 19 24 28 28 31 36 38 43 42 43 37 32 31 26 31 22 30 26 19 18 15 14 17 23
36 36 31 28 24 20 20 11 12 13 11 5 7 11 11 2 3 9 6 8 10 13 14 12 15 25 27 27 31 35 38 41 43 45 44 35 31 27 26 23 18 27 24 17 16 13 15 16 29
40 39 32 30 28 23 21 22 20 17 12 2 9 9 6 6 6 8 9 8 12 13 13 12 21 27 26 26 35 38 39 41 43 43 39 29 28 22 24 24 16 25 27 20 17 16 17 15 22
41 42 38 32 29 26 26 21 22 23 15 3 4 5 10 11 10 4 5 6 12 15 18 24 23 24 26 32 37 40 43 41 43 40 35 29 26 26 25 19 13 24 27 22 11 12 12 12 11
45 41 39 36 33 30 28 25 26 27 25 14 13 8 7 11 9 9 11 15 16 18 20 20 22 25 29 36 40 44 44 45 40 35 28 25 26 27 22 22 16 23 24 24 15 12 12 11 13
49 45 43 45 37 33 27 26 26 28 25 22 15 13 16 13 13 15 15 17 17 18 22 25 25 28 32 37 43 45 46 39 36 30 29 27 26 28 21 15 17 21 24 13 14 13 11 15 12
46 48 47 44 41 38 32 30 28 29 28 23 23 21 18 17 16 18 17 18 19 22 23 26 28 32 36 41 46 43 37 35 30 29 22 24 27 25 19 17 17 16 7 8 14 14 15 16 14
43 50 52 46 47 42 39 36 33 30 31 29 28 31 27 22 24 26 29 27 25 26 25 29 32 37 40 42 39 37 35 27 26 22 23 26 30 23 17 14 13 8 10 12 11 14 13 19 20
43 47 48 50 50 44 43 39 37 38 36 36 35 32 31 30 32 33 32 33 36 35 33 35 37 37 37 34 34 32 27 24 19 20 23 27 22 13 11 15 12 7 10 12 15 18 14 17 19
44 42 46 47 47 43 42 41 32 40 41 34 29 34 34 34 35 37 38 37 38 36 34 34 34 36 32 30 29 26 23 18 16 20 21 21 21 14 13 12 9 9 13 16 16 15 17 20 21
49 47 44 44 44 46 43 40 37 33 31 37 41 42 42 38 39 39 39 38 34 32 30 31 29 27 28 26 24 22 16 14 18 21 22 22 18 17 13 8 10 11 17 17 18 21 16 24 22
49 49 49 47 44 45 46 45 45 46 46 45 41 36 37 39 38 38 38 37 33 29 27 26 24 26 22 20 16 13 15 19 22 23 24 22 21 18 15 14 16 16 16 16 17 22 25 26 22
47 49 50 50 47 45 46 47 47 48 48 48 45 45 43 42 38 38 34 30 28 23 22 21 19 18 13 14 15 15 17 18 18 19 18 18 18 16 15 15 14 15 17 18 20 23 24 25 18
45 48 49 48 47 48 48 47 47 46 45 47 47 47 43 39 39 33 30 24 20 18 16 13 7 9 11 18 20 16 16 16 17 19 21 22 22 20 17 17 18 17 17 22 26 25 26 23 19
37 42 45 46 46 46 47 47 46 46 46 44 45 42 40 37 33 31 21 17 14 8 4 9 9 8 14 17 16 17 16 16 18 21 24 23 23 23 21 20 17 19 19 22 24 25 27 25 26
34 38 43 44 45 45 46 47 45 45 44 43 39 36 34 33 27 15 13 7 1 10 14 14 17 21 19 19 18 18 18 20 23 25 28 27 27 26 26 24 25 24 21 21 28 28 29 30 32
29 31 35 35 36 36 37 39 38 38 36 34 32 29 28 18 11 12 6 10 19 17 15 19 21 20 18 19 18 19 21 22 24 25 26 27 27 25 25 28 28 26 25 32 31 32 34 38 41
27 23 23 28 27 29 30 29 30 29 28 25 24 21 16 12 13 11 15 24 19 15 16 19 21 19 20 19 18 20 21 22 24 26 27 29 28 27 24 22 27 26 27 32 33 33 34 35 37
29 27 27 28 26 25 24 24 27 29 27 23 22 21 14 11 14 21 30 23 19 18 19 20 21 18 17 18 21 21 21 23 25 27 29 32 35 36 34 34 35 35 40 39 40 35 32 29 31
28 27 26 24 20 19 19 21 20 23 22 18 18 20 22 19 30 32 25 21 20 21 20 20 18 17 18 21 22 22 22 24 30 34 37 38 40 40 41 42 44 48 49 48 45 44 40 36 34
28 27 24 20 17 18 21 17 18 22 24 23 21 26 33 36 32 26 22 22 22 20 18 17 17 16 18 20 21 23 27 31 36 38 40 42 43 46 48 49 52 54 55 50 47 41 34 32 31
27 25 22 14 16 18 20 17 26 30 29 26 27 37 37 37 31 25 21 23 22 19 16 15 16 15 15 17 19 24 30 33 37 40 44 46 46 49 51 52 55 56 57 53 48 40 32 30 29
24 21 13 10 19 20 21 24 32 35 33 37 40 36 36 35 29 25 25 24 21 18 15 13 13 13 14 16 20 26 31 35 38 41 46 50 51 54 55 55 59 61 60 55 45 37 33 29 30
23 20 9 9 22 21 25 35 40 40 43 41 40 37 35 31 30 28 26 23 19 15 11 9 9 11 14 17 21 27 32 35 39 43 48 53 54 56 59 60 64 67 62 57 43 35 32 31 28
23 20 15 14 21 24 37 46 46 46 42 39 38 37 37 32 31 27 24 22 18 13 10 6 8 10 13 17 22 26 31 35 39 44 48 53 56 60 63 63 68 69 61 57 41 33 35 36 36
23 23 24 19 23 32 47 46 45 43 42 37 36 37 41 39 33 27 24 19 15 12 8 4 4 8 13 18 22 26 31 36 40 44 49 54 58 60 64 65 69 67 60 54 39 35 37 37 38
29 28 30 23 32 44 47 47 42 38 36 33 32 34 35 33 31 26 20 17 13 10 7 2 4 8 14 18 22 26 32 37 41 46 51 55 59 61 63 67 70 67 59 50 40 37 36 38 41
39 40 30 24 37 44 46 44 39 39 35 32 33 33 31 29 26 24 20 16 13 9 5 1 6 10 15 19 24 28 33 38 43 48 53 57 62 64 66 69 71 66 59 47 38 34 39 39 41
37 33 33 36 42 42 43 40 37 33 35 36 34 32 29 27 25 20 16 12 8 5 2 4 8 13 16 21 26 30 35 39 44 50 54 58 63 66 67 71 72 66 57 49 39 36 40 41 45
47 47 46 41 42 43 43 40 37 33 35 33 34 32 27 24 21 17 14 8 7 5 6 8 12 16 19 23 28 32 37 42 46 51 56 59 65 67 68 72 73 65 54 48 42 39 41 44 48
Wind_Direction
213 213 214 209 189 206 198 195 216 301 12 161 177 190 184 198 213 228 317 40 269 272 280 291 310 318 320 321 329 332 332 330 333 334 337 349 350 355 349 353 355 3 7 21 15 355 351 3 5
215 217 216 219 213 215 211 209 208 240 287 294 246 202 196 239 309 315 319 283 265 263 283 316 321 321 324 324 337 334 329 332 330 334 336 339 344 352 349 346 350 3 3 12 17 12 12 17 20
215 216 217 218 224 213 226 224 236 244 270 262 333 302 205 253 323 288 290 281 275 283 288 302 308 314 328 330 332 329 327 329 330 331 334 341 342 345 344 342 351 350 358 358 10 14 12 25 13
216 219 220 220 227 223 224 233 234 246 254 215 286 303 318 281 280 267 277 293 296 290 290 302 313 324 332 334 328 326 326 325 328 330 331 340 345 343 345 353 332 339 346 350 353 336 8 10 6
216 221 217 220 224 228 229 231 238 243 244 238 265 268 301 332 313 299 289 298 300 301 302 305 310 320 319 322 321 322 324 325 326 333 339 346 338 338 340 341 311 324 333 340 347 356 16 356 354
216 222 224 222 225 229 225 231 236 241 251 252 249 265 291 297 301 299 295 291 287 294 300 304 303 308 314 315 318 319 318 323 326 335 340 338 334 337 334 331 314 326 320 335 0 351 3 339 331
215 221 227 228 228 231 223 228 238 243 245 246 262 264 273 286 288 287 273 288 287 296 297 300 299 307 309 316 314 317 320 323 334 339 344 342 340 345 336 340 331 326 347 4 355 350 344 343 309
217 219 224 229 228 230 231 231 237 235 241 253 260 259 267 283 289 289 291 288 286 289 292 293 300 305 311 311 315 319 324 330 334 345 349 347 341 342 341 334 338 11 25 359 0 353 347 339 337
218 219 223 229 232 234 235 234 239 235 241 247 256 261 266 270 278 286 293 297 299 299 299 307 316 317 314 315 318 320 323 333 346 355 352 353 0 5 23 20 17 50 6 353 14 341 346 359 344
220 222 225 227 232 236 236 232 239 238 239 242 247 265 270 272 284 288 291 292 295 299 308 314 314 313 315 318 319 323 338 344 3 3 9 11 26 45 52 55 53 12 357 342 359 346 357 354 347
219 221 227 232 235 235 236 237 233 231 229 246 269 277 280 280 283 288 292 295 299 304 311 315 316 317 319 321 324 343 2 20 22 17 5 7 28 36 46 26 12 348 347 358 350 332 336 345 335
221 222 225 229 234 237 239 238 238 242 250 259 266 278 286 282 283 287 288 295 300 304 311 315 316 323 321 328 348 24 45 35 27 16 9 14 20 29 14 14 9 0 353 341 332 323 318 327 333
222 224 227 231 234 238 240 241 244 247 252 259 266 270 280 282 282 287 293 296 299 308 315 317 327 322 1 46 50 51 43 26 17 14 14 19 20 16 3 359 357 351 344 339 334 326 320 318 321
222 226 229 234 237 239 242 246 246 249 251 256 260 267 274 276 281 285 293 298 301 311 317 330 358 65 64 60 55 47 35 23 17 20 15 9 7 2 353 354 349 342 332 329 323 319 316 306 300
227 226 231 235 238 242 245 248 249 251 254 258 262 266 269 275 279 287 292 295 307 325 9 90 77 62 50 52 50 50 44 36 21 15 13 5 2 358 352 354 350 335 323 331 331 330 322 303 297
224 229 231 233 240 245 249 252 256 256 258 260 264 267 269 272 277 283 284 291 93 117 100 84 69 62 65 65 57 47 37 26 16 12 10 1 4 1 360 359 352 350 344 330 328 321 313 306 296
229 230 234 237 242 246 249 256 256 256 257 260 262 262 264 260 266 271 234 131 126 118 93 77 75 70 64 58 50 40 30 22 15 13 8 9 12 5 354 350 353 348 330 329 324 320 310 302 298
235 231 238 238 245 247 250 254 254 250 250 249 251 248 246 255 259 215 141 129 121 113 89 86 80 69 57 52 43 38 27 20 18 15 14 11 10 8 5 359 0 354 343 332 327 322 316 311 305
235 232 240 244 250 251 245 253 250 247 242 239 247 235 223 205 198 152 132 120 115 104 101 92 80 71 63 56 45 35 31 26 20 20 15 13 10 9 9 7 4 354 352 345 343 339 335 325 321
236 234 238 245 251 259 251 247 244 237 219 201 200 190 158 149 141 129 131 125 112 112 103 91 81 68 59 54 49 39 29 24 23 21 15 10 9 10 5 5 0 359 355 353 347 346 340 335 334
232 237 236 239 242 267 243 229 226 203 174 160 159 163 147 141 137 130 128 122 119 112 103 94 83 68 58 51 43 34 29 25 21 17 13 9 7 7 6 3 1 357 356 352 351 351 347 342 337
226 227 227 235 247 236 209 199 183 163 150 143 157 152 143 142 140 140 127 126 124 119 109 95 86 76 62 45 33 29 26 23 18 15 11 8 5 5 5 2 -0 357 354 355 356 359 354 348 345
210 215 218 239 223 203 189 180 169 145 140 149 148 146 145 149 146 139 134 136 131 122 112 100 90 76 58 39 28 24 20 17 13 11 9 7 4 3 4 1 360 358 356 358 360 1 359 352 344
194 178 172 243 191 183 174 170 148 143 146 149 148 152 154 152 145 143 145 141 132 125 117 96 81 60 44 31 22 17 14 10 8 7 7 5 2 1 2 1 -0 358 357 359 2 1 1 357 356
177 190 211 223 182 171 165 149 146 146 150 155 159 161 157 152 146 151 154 144 133 128 116 94 55 30 22 19 15 10 7 5 4 4 4 4 1 0 359 1 360 358 357 0 4 357 2 10 1
182 194 220 205 181 170 154 149 149 153 156 160 168 160 159 156 155 160 156 145 141 133 126 93 38 10 5 8 6 3 2 1 1 0 1 2 0 1 357 -0 359 358 357 1 1 358 6 8 3
176 204 208 188 173 162 159 156 156 159 162 168 169 166 167 162 160 161 153 156 153 145 135 118 0 351 356 356 355 358 357 358 357 358 359 358 358 359 359 357 359 358 356 1 1 359 358 356 356
182 196 177 172 166 161 165 165 169 169 169 173 172 175 168 167 162 161 168 172 172 169 173 223 323 339 346 344 347 352 352 353 353 355 357 356 355 357 357 356 359 358 356 0 1 356 0 357 352
190 181 167 167 164 167 168 170 175 181 177 176 172 178 178 175 176 179 182 186 190 193 234 306 316 326 335 339 342 345 347 350 351 353 353 353 353 355 357 356 357 357 355 357 357 352 351 348 348
190 182 170 174 179 178 175 178 184 189 178 181 177 185 189 184 182 189 198 211 234 252 270 285 301 315 327 332 336 341 344 346 348 351 349 351 351 353 355 355 355 357 354 354 354 354 349 351 349
Height
10990 10993 10998 11002 11007 11009 11011 11013 11015 11018 11020 11020 11020 11021 11023 11025 11026 11027 11026 11026 11025 11024 11023 11023 11021 11019 11016 11013 11010 11006 11002 10999 10995 10991 10986 10982 10978 10974 10973 10969 10965 10962 10959 10956 10955 10953 10951 10949 10947
10989 10992 10997 11002 11006 11009 11011 11014 11016 11018 11020 11022 11023 11023 11023 11024 11025 11025 11025 11025 11024 11024 11022 11020 11019 11017 11015 11013 11009 11006 11001 10997 10992 10988 10983 10979 10976 10972 10971 10968 10965 10962 10959 10956 10954 10953 10951 10948 10947
10987 10991 10996 10999 11004 11009 11011 11014 11015 11018 11019 11021 11022 11023 11023 11025 11025 11025 11025 11025 11024 11024 11021 11020 11019 11017 11015 11012 11008 11004 10999 10996 10990 10984 10981 10976 10973 10972 10969 10967 10964 10961 10959 10957 10955 10954 10951 10948 10946
10984 10990 10995 10998 11002 11008 11009 11013 11015 11017 11019 11020 11022 11024 11024 11024 11025 11025 11025 11025 11024 11023 11022 11020 11018 11016 11014 11011 11007 11003 10999 10994 10989 10983 10978 10975 10971 10970 10966 10965 10963 10960 10958 10956 10954 10952 10951 10948 10945
10982 10987 10992 10996 11001 11006 11008 11011 11013 11015 11018 11020 11021 11022 11023 11024 11025 11025 11025 11024 11023 11022 11020 11019 11017 11014 11012 11009 11005 11001 10996 10992 10986 10981 10977 10972 10970 10968 10965 10963 10961 10959 10957 10957 10954 10952 10951 10948 10945
10981 10985 10989 10995 10999 11004 11006 11009 11012 11014 11017 11019 11021 11022 11022 11023 11024 11025 11024 11022 11020 11019 11019 11018 11015 11012 11009 11006 11002 10997 10993 10987 10982 10977 10973 10969 10967 10964 10963 10961 10959 10958 10956 10956 10955 10954 10952 10949 10946
10979 10983 10987 10992 10998 11002 11004 11008 11010 11013 11015 11017 11018 11020 11021 11021 11021 11022 11022 11021 11019 11018 11017 11016 11012 11009 11006 11003 10998 10992 10988 10983 10978 10974 10971 10968 10965 10962 10960 10958 10957 10956 10955 10955 10955 10954 10952 10950 10947
10973 10979 10985 10988 10994 10999 11003 11005 11008 11011 11012 11015 11017 11019 11020 11020 11020 11019 11018 11017 11017 11016 11015 11012 11009 11007 11003 10998 10993 10988 10985 10979 10975 10972 10970 10967 10963 10959 10957 10957 10956 10956 10956 10955 10953 10954 10951 10948 10946
10969 10976 10981 10985 10990 10995 10999 11003 11006 11008 11010 11013 11013 11016 11018 11019 11019 11018 11017 11015 11014 11014 11011 11008 11006 11002 10998 10994 10989 10985 10982 10976 10974 10971 10968 10966 10961 10959 10958 10957 10957 10958 10958 10956 10951 10953 10949 10947 10946
10969 10973 10977 10982 10987 10992 10996 11000 11003 11005 11007 11009 11011 11013 11014 11014 11016 11015 11015 11013 11012 11011 11008 11005 11003 10999 10994 10991 10986 10983 10980 10976 10974 10972 10970 10968 10965 10963 10961 10959 10959 10958 10957 10955 10951 10952 10948 10945 10943
10966 10970 10974 10979 10983 10988 10991 10995 10999 11002 11004 11006 11007 11009 11010 11010 11011 11012 11011 11010 11008 11006 11004 11002 10998 10995 10992 10988 10984 10981 10979 10977 10975 10973 10972 10970 10967 10965 10963 10962 10961 10959 10956 10954 10952 10950 10947 10944 10940
10961 10966 10969 10973 10978 10982 10986 10989 10993 10998 11001 11002 11004 11005 11006 11007 11009 11008 11007 11006 11005 11003 11001 10999 10996 10993 10991 10986 10983 10982 10981 10978 10977 10975 10972 10971 10969 10967 10966 10964 10961 10958 10955 10952 10948 10947 10943 10941 10938
10958 10961 10966 10970 10974 10978 10981 10985 10989 10993 10996 10998 11000 11001 11002 11004 11005 11005 11004 11003 11002 11000 10998 10996 10994 10992 10989 10987 10985 10985 10984 10981 10980 10978 10976 10974 10972 10970 10968 10964 10961 10958 10954 10951 10947 10943 10939 10936 10934
10954 10959 10962 10966 10971 10975 10978 10981 10985 10989 10992 10994 10997 10998 11000 11001 11001 11001 11001 11000 10999 10997 10995 10994 10993 10993 10991 10989 10988 10988 10985 10985 10983 10981 10978 10975 10973 10970 10967 10965 10960 10956 10953 10948 10944 10940 10936 10932 10928
10950 10953 10957 10961 10965 10969 10972 10976 10980 10983 10986 10989 10992 10995 10995 10997 10997 10998 10998 10997 10996 10995 10995 10996 10995 10994 10992 10992 10992 10990 10989 10989 10987 10984 10981 10977 10974 10970 10966 10963 10960 10956 10952 10948 10943 10938 10933 10928 10924
10945 10948 10952 10956 10960 10964 10968 10970 10974 10977 10980 10983 10987 10990 10991 10993 10994 10995 10995 10995 10995 10997 10998 10997 10995 10994 10995 10995 10994 10993 10992 10991 10988 10984 10980 10978 10973 10968 10964 10960 10956 10952 10948 10945 10940 10934 10928 10921 10915
10943 10947 10950 10954 10956 10960 10963 10966 10968 10971 10975 10978 10982 10985 10987 10990 10991 10992 10993 10994 10996 10999 10999 10997 10996 10998 10998 10997 10997 10995 10994 10992 10990 10987 10984 10978 10973 10969 10965 10960 10955 10951 10946 10940 10933 10927 10921 10913 10905
10941 10946 10949 10951 10953 10956 10959 10962 10963 10966 10969 10973 10977 10981 10984 10987 10989 10991 10992 10995 10997 10998 10999 10998 10999 11000 11000 11000 10999 10997 10995 10994 10992 10989 10984 10978 10975 10971 10964 10959 10954 10949 10944 10936 10928 10920 10912 10904 10895
10937 10944 10945 10948 10949 10951 10954 10956 10958 10961 10964 10968 10972 10977 10981 10985 10988 10989 10992 10994 10996 10998 11000 11000 11001 11003 11003 11004 11001 10999 10998 10997 10994 10989 10984 10978 10973 10967 10962 10957 10951 10945 10936 10928 10919 10911 10903 10896 10888
10934 10939 10941 10943 10944 10947 10950 10952 10953 10956 10960 10965 10970 10973 10977 10985 10989 10991 10993 10994 10997 11000 11001 11002 11004 11005 11005 11005 11004 11002 10999 10997 10993 10987 10982 10977 10972 10966 10959 10953 10946 10937 10929 10919 10910 10900 10891 10883 10877
10931 10934 10938 10940 10942 10944 10947 10948 10950 10953 10956 10963 10970 10974 10977 10983 10990 10993 10995 10995 10998 11001 11003 11005 11005 11006 11007 11006 11005 11003 10999 10996 10991 10987 10983 10978 10971 10964 10956 10948 10940 10931 10921 10912 10903 10893 10885 10878 10872
10926 10930 10934 10937 10939 10941 10944 10946 10948 10950 10956 10962 10970 10975 10977 10985 10989 10993 10997 10998 10999 11002 11005 11006 11007 11007 11007 11006 11005 11002 10999 10996 10992 10988 10982 10976 10969 10962 10954 10946 10937 10927 10917 10906 10895 10887 10879 10875 10870
10922 10927 10933 10935 10935 10939 10941 10945 10948 10951 10956 10965 10972 10978 10981 10986 10991 10995 10997 10999 11001 11002 11005 11006 11007 11008 11007 11007 11004 10999 10997 10994 10992 10987 10981 10974 10966 10959 10952 10942 10933 10922 10911 10900 10891 10883 10877 10871 10866
10918 10925 10929 10931 10933 10937 10939 10943 10946 10952 10960 10969 10973 10979 10984 10988 10990 10994 10998 11000 11001 11003 11005 11007 11007 11007 11007 11005 11002 10998 10995 10994 10989 10984 10978 10970 10963 10955 10947 10937 10927 10915 10903 10894 10885 10879 10874 10869 10864
10917 10923 10926 10928 10931 10936 10940 10942 10947 10953 10963 10970 10976 10979 10983 10987 10992 10996 10999 11000 11002 11004 11005 11006 11006 11006 11006 11004 11000 10997 10995 10991 10987 10981 10975 10968 10960 10951 10941 10932 10921 10909 10899 10889 10882 10878 10872 10865 10860
10911 10917 10921 10925 10929 10936 10942 10945 10951 10959 10966 10971 10978 10980 10983 10985 10990 10995 10998 11001 11002 11004 11005 11005 11005 11006 11004 11002 11000 10997 10993 10989 10984 10979 10973 10965 10958 10950 10939 10929 10918 10906 10896 10886 10879 10874 10867 10861 10856
10908 10914 10917 10925 10930 10937 10943 10948 10954 10961 10968 10973 10980 10982 10986 10986 10989 10995 10998 11001 11003 11003 11005 11005 11005 11005 11003 11002 10999 10996 10992 10987 10982 10976 10969 10962 10955 10948 10938 10925 10914 10903 10891 10882 10876 10870 10864 10859 10853
10900 10904 10918 10925 10932 10937 10944 10949 10957 10961 10967 10972 10977 10984 10986 10988 10991 10994 10998 11000 11002 11003 11004 11005 11005 11004 11003 11001 10997 10993 10988 10985 10979 10972 10965 10958 10949 10942 10932 10921 10911 10899 10888 10879 10873 10867 10862 10855 10849
10904 10913 10918 10920 10931 10935 10943 10950 10958 10963 10967 10972 10976 10983 10987 10990 10992 10994 10998 11000 11002 11003 11003 11003 11003 11002 11001 10997 10993 10990 10985 10981 10976 10968 10961 10955 10946 10937 10927 10916 10905 10895 10884 10875 10869 10864 10858 10852 10846
10894 10900 10906 10918 10929 10933 10941 10949 10956 10962 10966 10972 10976 10982 10987 10989 10992 10995 10997 10999 11000 11001 11001 11001 11000 10999 10996 10994 10990 10986 10982 10977 10972 10964 10957 10950 10940 10931 10922 10911 10901 10890 10881 10872 10865 10860 10854 10848 10841